| time (UTC) | temp F | wind direction | speed MPH | gust MPH | rain 1hr in | rain 24hr in | rain mn in | humidity % | barometer mb |
| 20260507033025 | 42 | 0 | 0.0 | 0.0 | 0.00 | 0.09 | 0.06 | 88 | 1015.4 |
| 20260507032025 | 41 | 0 | 0.0 | 0.0 | 0.00 | 0.12 | 0.06 | 87 | 1015.4 |
| 20260507031003 | 42 | 0 | 0.0 | 0.0 | 0.00 | 0.15 | 0.06 | 87 | 1015.4 |
| 20260507030003 | 42 | 0 | 0.0 | 0.0 | 0.00 | 0.16 | 0.06 | 86 | 1015.3 |
| 20260507025024 | 43 | 0 | 0.0 | 0.0 | 0.00 | 0.16 | 0.06 | 85 | 1015.3 |
| 20260507024003 | 43 | 0 | 0.0 | 0.0 | 0.00 | 0.16 | 0.06 | 84 | 1015.3 |
| 20260507023025 | 44 | 0 | 0.0 | 0.0 | 0.00 | 0.16 | 0.06 | 83 | 1015.2 |
| 20260507022003 | 47 | 0 | 0.0 | 0.0 | 0.00 | 0.18 | 0.06 | 71 | 1015.1 |
| 20260507021003 | 47 | 0 | 0.0 | 0.0 | 0.00 | 0.20 | 0.06 | 71 | 1015.0 |
| 20260507020003 | 47 | 0 | 0.0 | 0.0 | 0.00 | 0.21 | 0.06 | 71 | 1014.9 |
| 20260507015004 | 47 | 0 | 0.0 | 0.0 | 0.00 | 0.21 | 0.06 | 71 | 1014.9 |
| 20260507014003 | 47 | 0 | 0.0 | 0.0 | 0.00 | 0.21 | 0.06 | 71 | 1014.8 |
| 20260507013003 | 48 | 0 | 0.0 | 0.0 | 0.00 | 0.21 | 0.06 | 64 | 1014.7 |
| 20260507012004 | 48 | 0 | 0.0 | 0.0 | 0.00 | 0.21 | 0.06 | 64 | 1014.7 |
| 20260507011003 | 50 | 0 | 0.0 | 0.0 | 0.00 | 0.22 | 0.06 | 64 | 1014.7 |
| 20260507010024 | 50 | 0 | 0.0 | 1.0 | 0.00 | 0.22 | 0.06 | 63 | 1014.5 |
| 20260507005003 | 51 | 301 | 0.0 | 2.0 | 0.00 | 0.23 | 0.06 | 62 | 1014.4 |
| 20260507004003 | 51 | 333 | 0.0 | 2.0 | 0.00 | 0.24 | 0.06 | 61 | 1014.3 |
| 20260507003003 | 52 | 321 | 1.0 | 3.0 | 0.00 | 0.27 | 0.06 | 58 | 1014.0 |
| 20260507002003 | 53 | 326 | 1.0 | 3.0 | 0.00 | 0.30 | 0.06 | 57 | 1013.8 |
| 20260507001004 | 54 | 347 | 1.0 | 3.0 | 0.00 | 0.32 | 0.06 | 56 | 1013.7 |
| 20260507000004 | 54 | 339 | 1.0 | 5.0 | 0.00 | 0.34 | 0.06 | 56 | 1013.6 |
| 20260506235024 | 54 | 292 | 2.0 | 7.0 | 0.00 | 0.35 | 0.06 | 54 | 1013.6 |
| 20260506234003 | 55 | 312 | 2.0 | 5.0 | 0.00 | 0.36 | 0.06 | 53 | 1013.6 |
| 20260506233003 | 55 | 287 | 1.0 | 4.0 | 0.00 | 0.39 | 0.06 | 54 | 1013.7 |
| 20260506232003 | 54 | 265 | 3.0 | 7.0 | 0.00 | 0.42 | 0.06 | 52 | 1013.7 |
| 20260506231003 | 56 | 270 | 3.0 | 8.0 | 0.00 | 0.43 | 0.06 | 49 | 1013.8 |
| 20260506230004 | 57 | 271 | 2.0 | 7.0 | 0.00 | 0.44 | 0.06 | 49 | 1013.7 |
| 20260506225003 | 56 | 267 | 3.0 | 9.0 | 0.00 | 0.45 | 0.06 | 49 | 1013.8 |
| 20260506224003 | 56 | 246 | 3.0 | 9.0 | 0.00 | 0.46 | 0.06 | 48 | 1013.8 |
| 20260506223003 | 57 | 256 | 5.0 | 11.0 | 0.00 | 0.46 | 0.06 | 49 | 1013.9 |
| 20260506222003 | 58 | 288 | 4.0 | 13.0 | 0.00 | 0.47 | 0.06 | 53 | 1013.9 |
| 20260506221003 | 56 | 249 | 3.0 | 9.0 | 0.00 | 0.48 | 0.06 | 55 | 1014.0 |
| 20260506220003 | 57 | 242 | 5.0 | 11.0 | 0.00 | 0.51 | 0.06 | 49 | 1014.1 |
| 20260506215004 | 58 | 263 | 3.0 | 8.0 | 0.00 | 0.52 | 0.06 | 51 | 1014.0 |
| 20260506214003 | 56 | 322 | 3.0 | 9.0 | 0.00 | 0.53 | 0.06 | 53 | 1013.9 |
| 20260506213003 | 58 | 351 | 1.0 | 10.0 | 0.00 | 0.54 | 0.06 | 59 | 1013.9 |
| 20260506212003 | 57 | 331 | 2.0 | 7.0 | 0.00 | 0.54 | 0.06 | 58 | 1013.8 |
| 20260506211003 | 56 | 234 | 4.0 | 10.0 | 0.00 | 0.54 | 0.06 | 57 | 1013.9 |
| 20260506210003 | 56 | 339 | 2.0 | 8.0 | 0.00 | 0.54 | 0.06 | 57 | 1013.7 |
| 20260506205003 | 57 | 262 | 3.0 | 10.0 | 0.00 | 0.54 | 0.06 | 58 | 1013.7 |
| 20260506204003 | 57 | 282 | 3.0 | 7.0 | 0.00 | 0.55 | 0.06 | 58 | 1013.8 |
| 20260506203003 | 55 | 235 | 3.0 | 8.0 | 0.00 | 0.55 | 0.06 | 59 | 1013.8 |
| 20260506202003 | 56 | 273 | 3.0 | 9.0 | 0.00 | 0.56 | 0.06 | 55 | 1013.8 |
| 20260506201003 | 56 | 240 | 3.0 | 8.0 | 0.00 | 0.57 | 0.06 | 58 | 1013.8 |
| 20260506200003 | 56 | 240 | 3.0 | 8.0 | 0.00 | 0.58 | 0.06 | 58 | 1013.8 |
| 20260506195003 | 56 | 234 | 3.0 | 9.0 | 0.00 | 0.58 | 0.06 | 64 | 1014.0 |
| 20260506194003 | 56 | 259 | 2.0 | 9.0 | 0.00 | 0.58 | 0.06 | 61 | 1014.0 |
| 20260506193003 | 56 | 247 | 3.0 | 9.0 | 0.00 | 0.58 | 0.06 | 61 | 1014.0 |
| 20260506192003 | 56 | 289 | 2.0 | 7.0 | 0.00 | 0.58 | 0.06 | 59 | 1014.0 |
| 20260506191003 | 56 | 264 | 3.0 | 7.0 | 0.00 | 0.58 | 0.06 | 57 | 1014.0 |
| 20260506190004 | 56 | 236 | 3.0 | 8.0 | 0.00 | 0.58 | 0.06 | 65 | 1014.0 |
| 20260506185003 | 56 | 256 | 3.0 | 9.0 | 0.00 | 0.58 | 0.06 | 63 | 1014.0 |
| 20260506184003 | 56 | 234 | 3.0 | 8.0 | 0.00 | 0.59 | 0.06 | 65 | 1014.0 |
| 20260506183024 | 56 | 293 | 2.0 | 5.0 | 0.00 | 0.60 | 0.06 | 63 | 1014.0 |
| 20260506182003 | 55 | 240 | 2.0 | 6.0 | 0.00 | 0.61 | 0.06 | 63 | 1013.9 |
| 20260506181003 | 55 | 266 | 2.0 | 5.0 | 0.00 | 0.62 | 0.06 | 63 | 1014.0 |
| 20260506180004 | 55 | 236 | 3.0 | 5.0 | 0.00 | 0.63 | 0.06 | 62 | 1014.1 |
| 20260506175003 | 55 | 238 | 2.0 | 7.0 | 0.00 | 0.66 | 0.06 | 59 | 1014.2 |
| 20260506174003 | 54 | 259 | 1.0 | 4.0 | 0.00 | 0.68 | 0.06 | 61 | 1014.2 |
| 20260506173003 | 54 | 211 | 2.0 | 4.0 | 0.00 | 0.70 | 0.06 | 59 | 1014.2 |
| 20260506172024 | 54 | 256 | 1.0 | 4.0 | 0.00 | 0.73 | 0.06 | 60 | 1014.2 |
| 20260506171003 | 54 | 230 | 1.0 | 4.0 | 0.00 | 0.74 | 0.06 | 58 | 1014.0 |
| 20260506170003 | 54 | 260 | 1.0 | 4.0 | 0.00 | 0.76 | 0.06 | 58 | 1014.1 |
| 20260506165003 | 54 | 275 | 1.0 | 4.0 | 0.00 | 0.77 | 0.06 | 61 | 1014.2 |
| 20260506164003 | 54 | 337 | 2.0 | 5.0 | 0.00 | 0.78 | 0.06 | 57 | 1014.2 |
| 20260506163003 | 54 | 338 | 1.0 | 4.0 | 0.00 | 0.78 | 0.06 | 59 | 1014.0 |
| 20260506162003 | 54 | 359 | 2.0 | 6.0 | 0.00 | 0.78 | 0.06 | 57 | 1013.9 |
| 20260506161024 | 55 | 353 | 1.0 | 7.0 | 0.00 | 0.78 | 0.06 | 58 | 1013.7 |
| 20260506160003 | 54 | 140 | 2.0 | 7.0 | 0.00 | 0.78 | 0.06 | 64 | 1013.8 |
| 20260506155003 | 55 | 240 | 2.0 | 5.0 | 0.00 | 0.80 | 0.06 | 56 | 1014.1 |
| 20260506154003 | 54 | 241 | 1.0 | 4.0 | 0.00 | 0.80 | 0.06 | 60 | 1013.8 |
| 20260506153003 | 54 | 255 | 1.0 | 5.0 | 0.00 | 0.80 | 0.06 | 62 | 1013.8 |
| 20260506152003 | 54 | 322 | 1.0 | 3.0 | 0.00 | 0.82 | 0.06 | 66 | 1013.9 |
| 20260506151003 | 54 | 272 | 2.0 | 4.0 | 0.00 | 0.85 | 0.06 | 64 | 1013.6 |
| 20260506150003 | 53 | 252 | 3.0 | 8.0 | 0.00 | 0.87 | 0.06 | 65 | 1013.7 |
| 20260506145003 | 55 | 339 | 2.0 | 7.0 | 0.00 | 0.89 | 0.06 | 63 | 1013.9 |
| 20260506144003 | 54 | 306 | 1.0 | 7.0 | 0.00 | 0.91 | 0.06 | 64 | 1013.7 |
| 20260506143024 | 54 | 336 | 2.0 | 7.0 | 0.00 | 0.92 | 0.06 | 68 | 1013.5 |
| 20260506142003 | 54 | 288 | 2.0 | 4.0 | 0.00 | 0.92 | 0.06 | 68 | 1013.6 |
| 20260506141003 | 53 | 310 | 2.0 | 6.0 | 0.00 | 0.92 | 0.06 | 69 | 1013.5 |
| 20260506140003 | 53 | 298 | 2.0 | 4.0 | 0.00 | 0.92 | 0.06 | 70 | 1013.3 |
| 20260506135003 | 53 | 250 | 1.0 | 5.0 | 0.00 | 0.92 | 0.06 | 73 | 1013.5 |
| 20260506134003 | 52 | 256 | 1.0 | 4.0 | 0.00 | 0.92 | 0.06 | 75 | 1013.3 |
| 20260506133003 | 52 | 242 | 1.0 | 3.0 | 0.00 | 0.92 | 0.06 | 78 | 1013.0 |
| 20260506132003 | 51 | 256 | 1.0 | 4.0 | 0.00 | 0.92 | 0.06 | 79 | 1013.2 |
| 20260506131003 | 50 | 244 | 1.0 | 3.0 | 0.00 | 0.92 | 0.06 | 81 | 1013.1 |
| 20260506130003 | 50 | 237 | 1.0 | 4.0 | 0.00 | 0.92 | 0.06 | 83 | 1013.2 |
| 20260506125003 | 49 | 248 | 1.0 | 4.0 | 0.00 | 0.92 | 0.06 | 84 | 1013.1 |
| 20260506124024 | 48 | 229 | 1.0 | 3.0 | 0.00 | 0.92 | 0.06 | 87 | 1013.0 |
| 20260506123003 | 48 | 0 | 0.0 | 0.0 | 0.00 | 0.92 | 0.06 | 92 | 1012.8 |
| 20260506122003 | 47 | 216 | 1.0 | 3.0 | 0.00 | 0.92 | 0.06 | 92 | 1012.9 |
| 20260506121003 | 46 | 0 | 0.0 | 0.0 | 0.00 | 0.92 | 0.06 | 93 | 1012.6 |
| 20260506120003 | 46 | 0 | 0.0 | 0.0 | 0.00 | 0.92 | 0.06 | 93 | 1012.3 |
| 20260506115003 | 46 | 0 | 0.0 | 0.0 | 0.00 | 0.92 | 0.06 | 93 | 1012.2 |
| 20260506114003 | 45 | 0 | 0.0 | 0.0 | 0.00 | 0.92 | 0.06 | 93 | 1011.7 |
| 20260506113003 | 45 | 0 | 0.0 | 0.0 | 0.00 | 0.92 | 0.06 | 93 | 1012.1 |
| 20260506112003 | 45 | 0 | 0.0 | 0.0 | 0.00 | 0.92 | 0.06 | 93 | 1012.0 |
| 20260506111003 | 44 | 0 | 0.0 | 0.0 | 0.00 | 0.92 | 0.06 | 93 | 1011.4 |
| 20260506110003 | 44 | 0 | 0.0 | 0.0 | 0.00 | 0.92 | 0.06 | 93 | 1011.4 |
| 20260506105003 | 44 | 0 | 0.0 | 0.0 | 0.00 | 0.92 | 0.06 | 92 | 1011.1 |
| 20260506104004 | 44 | 0 | 0.0 | 0.0 | 0.00 | 0.92 | 0.06 | 92 | 1010.8 |
| 20260506103004 | 45 | 0 | 0.0 | 0.0 | 0.00 | 0.92 | 0.06 | 92 | 1010.4 |
| 20260506102025 | 45 | 0 | 0.0 | 0.0 | 0.00 | 0.92 | 0.06 | 92 | 1010.6 |
| 20260506101004 | 45 | 0 | 0.0 | 0.0 | 0.00 | 0.92 | 0.06 | 92 | 1010.7 |
| 20260506100004 | 46 | 0 | 0.0 | 0.0 | 0.00 | 0.92 | 0.06 | 92 | 1010.8 |
| 20260506095004 | 46 | 0 | 0.0 | 0.0 | 0.00 | 0.92 | 0.06 | 92 | 1011.2 |
| 20260506094004 | 45 | 0 | 0.0 | 0.0 | 0.00 | 0.92 | 0.06 | 92 | 1010.8 |
| 20260506093025 | 45 | 0 | 0.0 | 0.0 | 0.00 | 0.92 | 0.06 | 92 | 1010.1 |
| 20260506092004 | 45 | 0 | 0.0 | 0.0 | 0.00 | 0.92 | 0.06 | 92 | 1010.3 |
| 20260506091004 | 45 | 0 | 0.0 | 0.0 | 0.00 | 0.92 | 0.06 | 92 | 1010.3 |
| 20260506090004 | 45 | 0 | 0.0 | 0.0 | 0.00 | 0.92 | 0.06 | 92 | 1010.1 |
| 20260506085004 | 45 | 0 | 0.0 | 0.0 | 0.00 | 0.92 | 0.06 | 92 | 1010.1 |
| 20260506084004 | 45 | 0 | 0.0 | 0.0 | 0.00 | 0.92 | 0.06 | 91 | 1009.8 |
| 20260506083004 | 45 | 0 | 0.0 | 0.0 | 0.01 | 0.92 | 0.06 | 91 | 1010.1 |
| 20260506082025 | 46 | 0 | 0.0 | 0.0 | 0.01 | 0.92 | 0.06 | 92 | 1009.9 |
| 20260506081005 | 45 | 0 | 0.0 | 0.0 | 0.01 | 0.97 | 0.06 | 91 | 1010.4 |
| 20260506073004 | 46 | 0 | 0.0 | 0.0 | 0.00 | 1.17 | 0.05 | 91 | 1009.4 |
| 20260506072004 | 45 | 0 | 0.0 | 0.0 | 0.00 | 1.21 | 0.05 | 91 | 1009.8 |
| 20260506071004 | 45 | 0 | 0.0 | 0.0 | 0.00 | 1.25 | 0.05 | 91 | 1009.8 |
| 20260506062004 | 46 | 17 | 0.0 | 2.0 | 0.01 | 1.37 | 0.05 | 91 | 1009.9 |
| 20260506061004 | 45 | 13 | 1.0 | 3.0 | 0.01 | 1.40 | 0.05 | 91 | 1009.4 |
| 20260506051004 | 46 | 351 | 1.0 | 4.0 | 0.03 | 1.58 | 0.04 | 91 | 1010.6 |
| 20260506045004 | 46 | 322 | 0.0 | 2.0 | 0.03 | 1.74 | 0.03 | 91 | 1011.1 |
| 20260506044004 | 46 | 348 | 1.0 | 3.0 | 0.04 | 1.74 | 0.03 | 90 | 1010.8 |
| 20260506043004 | 46 | 3 | 1.0 | 3.0 | 0.04 | 1.72 | 0.01 | 90 | 1010.2 |
| 20260506042004 | 46 | 359 | 1.0 | 4.0 | 0.07 | 1.72 | 0.01 | 90 | 1009.9 |
| 20260506041025 | 46 | 22 | 2.0 | 5.0 | 0.10 | 1.72 | 0.01 | 90 | 1009.7 |
| 20260506040004 | 46 | 20 | 2.0 | 5.0 | 0.10 | 1.71 | 0.00 | 90 | 1009.5 |
| 20260506035004 | 46 | 23 | 2.0 | 4.0 | 0.10 | 1.71 | 1.71 | 90 | 1009.6 |
| 20260506034004 | 46 | 27 | 2.0 | 4.0 | 0.09 | 1.70 | 1.70 | 91 | 1009.8 |